#timestamp,LO_Frequency,Hit,StdDev 
1716487215.1,286047002.2,N
1716487235.9,286047002.5,N
1716487255.7,286047002.7,N
1716487275.5,286047002.2,N
1716487295.4,286047002.0,N
1716487315.2,286047001.9,N
1716487335.1,286047000.1,N
1716487336.0,286047000.1,N
1716487355.8,286046998.5,N
1716487375.6,286047001.1,N
1716487395.5,286046998.4,N
1716487415.3,286046999.5,N
1716487435.1,286046999.4,N
1716487455.9,286046998.3,N
1716487475.7,286047000.8,N
1716487495.6,286046998.6,N
1716487515.4,286046998.4,N
1716487535.2,286046998.1,N
1716487555.1,286046998.1,N
1716487556.0,286046998.1,N
1716487575.8,286046999.3,N
1716487595.7,286046999.5,N
1716487615.5,286046996.6,N
1716487635.3,286046997.4,N
1716487655.2,286046997.0,N
1716487675.0,286046998.9,N
1716487675.9,286046998.9,N
1716487695.7,286046999.1,N
1716487715.6,286046998.5,N
1716487735.4,286046997.1,N
1716487755.3,286046997.2,N
1716487775.1,286046997.2,N
1716487776.0,286046997.2,N
1716487795.8,286046997.2,N
1716487815.7,286046997.1,N
1716487865.5,286046997.3,E
1716487875.5,286046996.5,N
1716487895.3,286047000.9,P
1716487915.1,286047001.1,N
1716487935.9,286046998.5,N
1716487955.7,286046998.4,N
1716487975.5,286047000.8,N
1716487995.4,286047000.8,N
1716488015.2,286047000.4,N
1716488035.0,286047000.2,N
1716488036.0,286047000.2,N
1716488055.8,286047002.1,N
1716488075.6,286047001.9,N
1716488095.5,286046999.9,N
1716488115.3,286047001.2,N
1716488135.1,286047001.2,N
1716488155.9,286046998.6,N
1716488175.7,286046998.1,N
1716488195.5,286046998.5,N
1716488215.4,286046998.2,N
1716488235.2,286046998.7,N
1716488255.1,286046998.5,N
1716488256.0,286046998.5,N
1716488275.8,286046998.4,N
1716488295.6,286046998.4,N
1716488315.5,286046998.7,N
1716488335.3,286046998.5,N
1716488355.1,286046998.5,N
1716488375.9,286046998.7,N
1716488395.7,286046998.2,N
1716488415.6,286047001.2,N
1716488435.4,286046998.6,N
1716488455.2,286046998.7,N
1716488475.1,286046998.5,N
1716488476.0,286046998.5,N
1716488495.8,286046998.4,N
1716488515.6,286046999.1,N
1716488535.5,286046998.8,N
1716488555.3,286046998.7,N
1716488575.2,286046998.9,N
1716488595.9,286046999.1,N
1716488615.7,286046996.6,Y
1716488635.6,286047001.2,P
1716488655.4,286046998.7,N
1716488675.2,286046998.8,N
1716488695.1,286046999.0,N
1716488696.0,286046999.0,N
1716488715.8,286046999.4,N
1716488735.7,286046999.0,N
1716488755.5,286046996.7,Y
1716488775.3,286046998.3,P
1716488795.2,286046998.3,P
1716488815.0,286046999.9,N
1716488815.9,286046999.9,N
1716488835.8,286047002.8,Y
1716488855.6,286047002.0,P
1716488875.4,286047002.3,N
1716488895.3,286047000.3,N
1716488915.1,286047002.6,N
1716488935.8,286047002.4,N
1716488955.7,286047002.0,N
1716488975.5,286047002.8,N
1716488995.4,286046999.9,N
1716489015.2,286047000.0,N
1716489035.0,286047002.8,N
1716489035.9,286047002.8,N
1716489055.8,286047000.2,N
1716489075.6,286047002.3,N
1716489095.4,286047000.2,N
1716489115.3,286047001.2,N
1716489135.1,286047000.6,N
1716489155.9,286047000.9,N
1716489175.7,286047000.0,N
1716489195.5,286047001.2,N
1716489215.4,286047001.1,N
1716489235.2,286046999.7,N
1716489255.0,286047000.5,N
1716489255.9,286047000.5,N
1716489275.8,286047001.0,N
1716489295.6,286047001.1,N
1716489315.5,286046999.9,N
1716489335.3,286047000.2,N
1716489355.1,286046999.9,N
1716489375.9,286047002.7,N
1716489395.7,286047002.8,N
1716489415.5,286046999.9,N
1716489435.4,286047001.1,N
1716489455.2,286047000.6,N
1716489475.1,286047000.7,N
1716489476.0,286047000.7,N
1716489495.8,286047000.4,N
1716489515.6,286047000.6,N
1716489535.5,286047001.0,N
1716489555.3,286047001.2,N
1716489575.1,286046998.6,N
1716489595.9,286046998.6,N
1716489615.7,286047000.8,N
1716489635.6,286046998.1,N
1716489655.4,286046998.2,N
1716489675.2,286046998.3,N
1716489695.1,286047000.6,N
1716489696.0,286047000.6,N
1716489715.8,286046998.7,N
1716489735.6,286046998.4,N
1716489755.5,286046997.0,N
1716489775.3,286046999.4,N
1716489795.2,286046998.4,N
1716489815.9,286046998.4,N
1716489835.7,286047001.0,N
1716489855.6,286046998.3,N
1716489875.4,286046998.4,N
1716489895.2,286046998.8,N
1716489915.1,286046998.2,N
1716489916.0,286046998.2,N
1716489935.8,286046998.7,N
1716489955.7,286046998.7,N
1716489975.5,286046998.6,N
1716489995.3,286046998.8,N
1716490015.2,286047000.8,N
1716490035.0,286047001.0,N
1716490035.9,286047001.0,N
1716490055.8,286047000.9,N
1716490075.6,286047000.4,N
1716490095.5,286047000.7,N
1716490115.3,286047000.5,N
1716490135.1,286047000.9,N
1716490155.9,286046998.2,N
1716490175.7,286046998.2,N
1716490195.5,286046998.5,N
1716490215.4,286046998.9,N
1716490235.2,286046999.3,N
1716490255.1,286046998.4,N
1716490256.0,286046998.4,N
1716490275.8,286046998.5,N
1716490295.2,286046998.9,N
1716490315.1,286046999.4,N
1716490316.0,286046999.4,N
1716490335.8,286046997.0,N
1716490355.6,286046996.9,N
1716490375.5,286046997.8,N
1716490395.3,286046997.6,N
1716490415.2,286046995.1,Y
1716490435.9,286046997.5,P
1716490455.7,286046997.1,P
1716490475.6,286046999.6,N
1716490495.4,286046999.3,N
1716490515.3,286046999.1,N
1716490535.1,286046998.9,N
1716490536.0,286046998.9,N
1716490555.8,286046998.7,N
1716490575.7,286047000.8,N
1716490595.5,286046998.5,N
1716490615.3,286046998.4,N
1716490635.2,286046998.4,N
1716490655.0,286047001.2,N
1716490655.9,286047001.2,N
1716490675.8,286047000.7,N
1716490695.6,286047000.2,N
1716490715.4,286047001.0,N
1716490735.3,286047000.6,N
1716490755.1,286047002.5,N
1716490775.9,286047002.6,N
1716490795.7,286047002.2,N
